DW5164 Weather Reports


Display with metric or nautical units.
time (UTC)temp
F
wind
direction
speed
MPH
gust
MPH
rain 1hr
in
rain 24hr
in
rain mn
in
humidity
%
barometer
mb
20260504001525 61 239 1.0 2.0 0.00 0.00 0.00 66 1016.1
20260504001025 60 239 1.0 2.0 0.00 0.00 0.00 67 1016.1
20260504000524 60 248 1.0 3.0 0.00 0.00 0.00 70 1016.1
20260504000025 60 240 2.0 3.0 0.00 0.00 0.00 70 1016.1
20260503235524 60 256 0.0 2.0 0.00 0.00 0.00 70 1016.1
20260503235027 60 265 0.0 0.0 0.00 0.00 0.00 69 1016.2
20260503234524 61 265 0.0 0.0 0.00 0.00 0.00 67 1016.2
20260503234024 61 265 0.0 1.0 0.00 0.00 0.00 65 1016.2
20260503233524 61 265 2.0 3.0 0.00 0.00 0.00 66 1016.2
20260503232025 62 288 0.0 0.0 0.00 0.00 0.00 64 1016.1
20260503231524 63 288 0.0 1.0 0.00 0.00 0.00 62 1016.2
20260503231024 63 291 2.0 3.0 0.00 0.00 0.00 62 1016.2
20260503230525 63 301 1.0 3.0 0.00 0.00 0.00 63 1016.2
20260503230024 63 327 1.0 2.0 0.00 0.00 0.00 62 1016.2
20260503225524 63 329 1.0 3.0 0.00 0.00 0.00 62 1016.3
20260503224524 63 31 2.0 3.0 0.00 0.00 0.00 63 1016.3
20260503224024 63 23 1.0 2.0 0.00 0.00 0.00 62 1016.3
20260503223024 63 275 3.0 3.0 0.00 0.00 0.00 62 1016.1
20260503222524 63 265 3.0 3.0 0.00 0.00 0.00 62 1016.1
20260503222026 63 267 3.0 3.0 0.00 0.00 0.00 63 1016.1
20260503221039 63 256 2.0 3.0 0.00 0.00 0.00 63 1016.0
20260503220540 63 241 2.0 3.0 0.00 0.00 0.00 63 1016.0
20260503220025 63 255 2.0 3.0 0.00 0.00 0.00 63 1016.0
20260503215025 63 250 3.0 3.0 0.00 0.00 0.00 63 1016.0
20260503214528 63 240 2.0 3.0 0.00 0.00 0.00 64 1015.9
20260503214024 62 245 3.0 3.0 0.00 0.00 0.00 64 1015.9
20260503213524 62 247 2.0 3.0 0.00 0.00 0.00 65 1015.8
20260503213024 63 229 1.0 3.0 0.00 0.00 0.00 65 1015.8
20260503212525 63 229 0.0 0.0 0.00 0.00 0.00 65 1015.7
20260503212023 63 229 0.0 0.0 0.00 0.00 0.00 64 1015.7
20260503211525 63 229 1.0 2.0 0.00 0.00 0.00 65 1015.6
20260503210524 62 245 0.0 0.0 0.00 0.00 0.00 66 1015.6
20260503210027 63 283 0.0 0.0 0.00 0.00 0.00 67 1015.5
20260503205524 63 310 0.0 0.0 0.00 0.00 0.00 66 1015.5
20260503205023 63 310 0.0 0.0 0.00 0.00 0.00 65 1015.4
20260503204523 63 310 0.0 0.0 0.00 0.00 0.00 65 1015.5
20260503204023 64 310 0.0 0.0 0.00 0.00 0.00 65 1015.5
20260503203523 64 310 0.0 0.0 0.00 0.00 0.00 65 1015.5
20260503203024 64 310 0.0 0.0 0.00 0.00 0.00 65 1015.5
20260503202524 64 310 0.0 0.0 0.00 0.00 0.00 64 1015.6
20260503202024 65 310 0.0 0.0 0.00 0.00 0.00 62 1015.6
20260503201523 65 310 0.0 0.0 0.00 0.00 0.00 61 1015.6
20260503201023 65 310 0.0 0.0 0.00 0.00 0.00 61 1015.6
20260503200529 65 310 0.0 0.0 0.00 0.00 0.00 61 1015.6
20260503200023 65 310 0.0 0.0 0.00 0.00 0.00 60 1015.6
20260503194023 66 310 0.0 0.0 0.00 0.00 0.00 59 1015.4
20260503193524 66 310 0.0 0.0 0.00 0.00 0.00 58 1015.3
20260503192523 67 310 0.0 0.0 0.00 0.00 0.00 57 1015.3
20260503191524 67 310 1.0 1.0 0.00 0.00 0.00 57 1015.2
20260503191024 68 310 0.0 0.0 0.00 0.00 0.00 57 1015.2
20260503190023 68 310 0.0 1.0 0.00 0.00 0.00 57 1015.1
20260503185024 69 310 0.0 0.0 0.00 0.00 0.00 54 1015.1
20260503184039 70 310 0.0 0.0 0.00 0.00 0.00 53 1015.0
20260503183523 70 310 0.0 1.0 0.00 0.00 0.00 52 1015.0
20260503183023 71 310 1.0 1.0 0.00 0.00 0.00 52 1015.0
20260503182523 71 310 1.0 1.0 0.00 0.00 0.00 51 1014.9
20260503181524 72 310 0.0 0.0 0.00 0.00 0.00 48 1014.9
20260503181023 73 310 0.0 1.0 0.00 0.00 0.00 48 1014.8
20260503180525 74 310 0.0 1.0 0.00 0.00 0.00 45 1014.8
20260503180024 75 310 1.0 2.0 0.00 0.00 0.00 42 1014.7
20260503175524 75 310 2.0 2.0 0.00 0.00 0.00 41 1014.7
20260503175023 75 311 0.0 2.0 0.00 0.00 0.00 41 1014.6
20260503174024 76 290 2.0 3.0 0.00 0.00 0.00 40 1014.7
20260503173024 77 298 2.0 5.0 0.00 0.00 0.00 39 1014.7
20260503172523 77 298 3.0 3.0 0.00 0.00 0.00 39 1014.6
20260503172023 76 263 1.0 3.0 0.00 0.00 0.00 41 1014.7
20260503171525 76 243 0.0 1.0 0.00 0.00 0.00 46 1014.7
20260503171023 76 243 0.0 0.0 0.00 0.00 0.00 44 1014.7
20260503170523 76 243 0.0 1.0 0.00 0.00 0.00 44 1014.7
20260503150523 81 353 3.0 7.0 0.00 0.00 0.00 35 1015.6
20260503131023 80 255 4.0 5.0 0.00 0.00 0.00 37 1016.7
20260503130522 79 224 5.0 7.0 0.00 0.00 0.00 38 1016.7
20260503110522 76 199 3.0 6.0 0.00 0.00 0.00 40 1017.4
20260503081521 67 87 0.0 2.0 0.00 0.00 0.00 60 1018.6
20260503081022 67 65 2.0 3.0 0.00 0.00 0.00 65 1018.6
20260503080521 66 66 2.0 3.0 0.00 0.00 0.00 62 1018.6
20260503072021 64 46 1.0 3.0 0.00 0.00 0.00 69 1018.7
20260503071522 63 51 1.0 3.0 0.00 0.00 0.00 68 1018.7
20260503071022 63 96 2.0 5.0 0.00 0.00 0.00 69 1018.7
20260503070522 62 119 2.0 3.0 0.00 0.00 0.00 70 1018.7
20260503054021 55 261 0.0 0.0 0.00 0.00 0.00 79 1018.6
20260503053521 55 261 0.0 0.0 0.00 0.00 0.00 79 1018.6
20260503053028 54 261 0.0 0.0 0.00 0.00 0.00 80 1018.6
20260503052521 54 261 0.0 0.0 0.00 0.00 0.00 81 1018.6
20260503052021 53 267 0.0 0.0 0.00 0.00 0.00 82 1018.6
20260503051521 53 267 0.0 0.0 0.00 0.00 0.00 83 1018.6
20260503051021 52 267 0.0 0.0 0.00 0.00 0.00 84 1018.6
20260503050521 52 267 0.0 0.0 0.00 0.00 0.00 85 1018.6
20260503050022 51 267 0.0 0.0 0.00 0.00 0.00 87 1018.5
20260503045521 51 267 0.0 0.0 0.00 0.00 0.00 87 1018.5
20260503045021 50 267 0.0 0.0 0.00 0.00 0.00 87 1018.5
20260503044521 50 254 0.0 0.0 0.00 0.00 0.00 87 1018.5
20260503044021 50 232 0.0 0.0 0.00 0.00 0.00 88 1018.6
20260503043520 50 230 0.0 0.0 0.00 0.00 0.00 88 1018.6
20260503043020 50 230 0.0 1.0 0.00 0.00 0.00 88 1018.5
20260503042523 50 230 0.0 0.0 0.00 0.00 0.00 88 1018.5
20260503042022 50 230 0.0 0.0 0.00 0.00 0.00 88 1018.5
20260503041521 50 230 0.0 0.0 0.00 0.00 0.00 88 1018.5
20260503041021 50 230 0.0 0.0 0.00 0.00 0.00 87 1018.5
20260503040521 49 230 0.0 0.0 0.00 0.00 0.00 87 1018.5
20260503040021 49 230 0.0 0.0 0.00 0.00 0.00 87 1018.5
20260503035521 49 230 1.0 3.0 0.00 0.00 0.00 87 1018.4
20260503035021 50 252 1.0 3.0 0.00 0.00 0.00 86 1018.4
20260503034520 50 27 0.0 0.0 0.00 0.00 0.00 86 1018.5
20260503034024 50 30 0.0 0.0 0.00 0.00 0.00 86 1018.4
20260503033520 50 30 0.0 0.0 0.00 0.00 0.00 86 1018.4
20260503033020 50 30 0.0 0.0 0.00 0.00 0.00 86 1018.4
20260503032522 50 30 0.0 0.0 0.00 0.00 0.00 86 1018.4
20260503032020 50 30 0.0 0.0 0.00 0.00 0.00 86 1018.4
20260503031521 50 30 0.0 0.0 0.00 0.00 0.00 86 1018.5
20260503030520 51 30 0.0 0.0 0.00 0.00 0.00 85 1018.5
20260503030021 51 30 0.0 0.0 0.00 0.00 0.00 85 1018.4
20260503025522 51 30 0.0 0.0 0.00 0.00 0.00 85 1018.5
20260503025021 51 30 0.0 0.0 0.00 0.00 0.00 85 1018.5
20260503024025 51 30 0.0 0.0 0.00 0.00 0.00 85 1018.6
20260503023520 51 30 0.0 0.0 0.00 0.00 0.00 84 1018.6
20260503023020 51 30 0.0 0.0 0.00 0.00 0.00 84 1018.6
20260503022520 51 30 0.0 0.0 0.00 0.00 0.00 84 1018.6
20260503022021 51 30 0.0 0.0 0.00 0.00 0.00 84 1018.7
20260503021521 51 30 0.0 0.0 0.00 0.00 0.00 84 1018.7
20260503021020 52 30 0.0 0.0 0.00 0.00 0.00 83 1018.7
20260503020521 52 30 0.0 0.0 0.00 0.00 0.00 83 1018.7
20260503020022 52 30 0.0 0.0 0.00 0.00 0.00 83 1018.7
20260503015521 52 30 0.0 0.0 0.00 0.00 0.00 83 1018.7
20260503015020 52 30 0.0 0.0 0.00 0.00 0.00 83 1018.7
20260503014020 52 30 0.0 0.0 0.00 0.00 0.00 82 1018.8
20260503013520 52 30 0.0 0.0 0.00 0.00 0.00 81 1018.8
20260503013021 52 30 0.0 0.0 0.00 0.00 0.00 82 1018.8
20260503012020 53 30 0.0 1.0 0.00 0.00 0.00 81 1018.8
20260503010520 53 30 0.0 1.0 0.00 0.00 0.00 80 1019.0
20260503010020 53 30 0.0 0.0 0.00 0.00 0.00 80 1019.0
20260503005021 53 30 0.0 0.0 0.00 0.00 0.00 81 1019.0
20260503004520 54 30 0.0 0.0 0.00 0.00 0.00 79 1019.1
20260503004020 54 30 0.0 0.0 0.00 0.00 0.00 79 1019.1
20260503003521 54 30 0.0 0.0 0.00 0.00 0.00 80 1019.2
20260503002522 54 30 0.0 0.0 0.00 0.00 0.00 79 1019.2
20260503002021 55 30 1.0 2.0 0.00 0.00 0.00 79 1019.3